DECAYED

FALCON 9 R/B, 54248 (Decayed)

Orbit data source: Space-Track

FALCON 9 R/B, 54248 was space debris in LEO originally from a launch on Sat, 12 Nov 2022 UTC launched from the Air Force Eastern Test Range (AFETR). Debris objects in space refer to the collection of defunct objects orbiting the Earth. Examples of debris include non-operational satellites, rocket bodies, and fragments generated from explosions, collisions, or faulty payload assembly.

Loading next visibility...
Identifier
54248, 2022-153C
Orbit
Decayed
Country
Flag of USUS
Related business
Manufacturer
SpaceX
Mission
Decayed spacecraft
Bus & Motor
F9ST2, Unknown motor
Mass
~4,000 kg wet, ~4,000 kg dry
Launch date (UTC)
2022-11-12 (3 years ago)
Launch vehicle
Unknown
Launch site
Air Force Eastern Test Range (AFETR)
Object type
Payload
Rocket body
Debris
Shape & HBR
Cyl, 7.8 m
Radar Cross Section
39.980 m², Large (>1 m²)

Expand to show TLE details & history
Last TLE update: 1 year ago

TLE from 1 year ago
0 FALCON 9 R/B
1 54248U 22153C   24089.85951830  .00002165 -13794-4  00000+0 0  9990
2 54248  25.7482   6.0835 2322286  26.0588  64.4028 11.19204574  6968
Epoch: 2024-03-29T20:37Z
TLE epoch observation values (Epoch: 2024-03-29T20:37:42.381Z)
Latitude
22.88867°
Longitude
-11.67042°
Altitude
1,634.42 km
Speed
7.234 km/s
True Right ascension
08h 21m 58s
True Declination
22° 46' 45"
Sunlit
Object was in daylight at epoch
Visualization orbit readout
Latitude
Unknown
Longitude
Unknown
Altitude
Unknown
Speed
Unknown
Apparent Right ascension
Unknown
Apparent Declination
Unknown
Sunlit
N/A
Visualization observer readout
Local Sidereal Time
01:34:27
Azimuth
Unknown
Elevation
Unknown
Doppler factor
Unknown
Orbital elements
Apogee altitude
4,029.757 km
Perigee altitude
106.766 km
Semi-major axis
8,446.398 km
Eccentricity
0.23223
Inclination
25.7482°
RAAN
6.0835°
Arg. of periapsis
26.0588°
True anomaly
90.83726°
Mean anomaly
64.4028°
Eccentric anomaly
77.38744°
Mean motion
2.79599 °/min
Orbital period
128.76 mins
BSTAR
0
Loading maneuver chart data...
Computing Atmospheric mass density...
Loading historical data...
Loading historical data...
Loading historical data...
Loading historical data...
Loading historical data...
Loading historical data...
Loading historical data...
Other satellites on launch #153 in the year 2022 (2022-11-12 UTC)

Documentation

Showing up to 5 results
|